Location: Planegg
(48.1000°N, 11.4170°E)
Time: 15:27:04
(UTC+02:00)

ISS - Visible Passes

Search period start: 22 October 2019 00:00
Search period end: 31 October 2019 23:00
Orbit: 411 x 421 km, 51.6° (Epoch: 22 October)

Date Brightness Start Highest point End Pass type
(mag) Time Alt. Az. Time Alt. Az. Time Alt. Az.
24 Oct -0.9 06:49:34 10° S 06:51:53 17° SE 06:54:11 10° E visible
25 Oct -0.6 06:02:32 10° SSE 06:03:31 11° SE 06:04:30 10° ESE visible
26 Oct -2.4 06:47:58 10° SW 06:51:07 37° SE 06:54:16 10° ENE visible
27 Oct -1.7 05:00:46 16° S 05:02:38 25° SE 05:05:26 10° E visible
28 Oct -1.0 04:14:38 16° SE 04:14:38 16° SE 04:16:21 10° E visible
28 Oct -3.7 05:47:33 13° WSW 05:50:29 79° SSE 05:53:51 10° ENE visible
29 Oct -3.2 05:01:15 45° SSW 05:01:53 53° SSE 05:05:11 10° ENE visible
30 Oct -1.3 04:14:50 22° E 04:14:50 22° E 04:16:25 10° ENE visible
30 Oct -3.6 05:47:44 19° W 05:49:57 61° NNW 05:53:18 10° ENE visible
31 Oct -3.9 05:01:14 80° NNW 05:01:15 80° NNW 05:04:37 10° ENE visible
